Change the Weather History Date:

Thursday, December 6, 2012

  Actual Average Record
Temperature  
Mean Temperature 56 °F -  
Max Temperature 59 °F 60 °F 69 °F (2007)
Min Temperature 53 °F 52 °F 46 °F (1996)
Degree Days  
Heating Degree Days 9    
Growing Degree Days 6 (Base 50)    
Moisture  
Dew Point 46 °F    
Average Humidity 66    
Maximum Humidity 88    
Minimum Humidity 53    
Precipitation  
Precipitation 0.02 in - - ()
Sea Level Pressure  
Sea Level Pressure 30.17 in    
Wind  
Wind Speed 6 mph ()    
Max Wind Speed 15 mph    
Max Gust Speed -    
Visibility 7.5 miles    
Events Rain    
Averages and records for this station are not official NWS values.
T = Trace of Precipitation, MM = Missing Value Source: Averaged Metar Reports

Daily Weather History Graph

Daily Weather History Graph

Search for Another Location

Airport or City:

Trip Planner

Search our weather history database for the weather conditions in past years. The results will help you decide how hot, cold, wet, or windy it might be!

Date:

Astronomy

Dec. 06, 2012 Rise Set
Actual Time 8:18 AM CET 6:06 PM CET
Civil Twilight 7:50 AM CET 6:35 PM CET
Nautical Twilight 7:18 AM CET 7:06 PM CET
Astronomical Twilight 6:46 AM CET 7:38 PM CET
Moon 12:32 AM CET (12/6) 1:14 PM CET (12/6)
Length of Visible Light 10h 44m
Length of Day
9h 48m
Waning Gibbous, 52% of the Moon is Illuminated
Dec 6
Waning Gibbous
Dec 6
Last Quarter
Dec 13
New
Dec 20
First Quarter
Dec 28
Full

Hourly Weather History & Observations

Time (CET) Temp. Dew Point Humidity Pressure Visibility Wind Dir Wind Speed Gust Speed Precip Events Conditions
12:50 AM 55 °F 43 °F 53% 30.21 in 11 mi West 9.2 mph - -   Partly Cloudy
12:50 AM 55.4 °F 42.8 °F 63% 30.21 in 6.2 mi West 9.2 mph - N/A   Scattered Clouds
1:50 AM 55.4 °F 42.8 °F 63% 30.18 in 6.2 mi WNW 11.5 mph - N/A   Mostly Cloudy
2:50 AM 55.4 °F 42.8 °F 63% 30.18 in 6.2 mi West 13.8 mph - N/A   Overcast
3:50 AM 57.2 °F 44.6 °F 63% 30.15 in 6.2 mi West 15.0 mph - N/A   Overcast
4:50 AM 55.4 °F 44.6 °F 67% 30.15 in 6.2 mi West 11.5 mph - N/A   Mostly Cloudy
5:50 AM 55.4 °F 44.6 °F 67% 30.15 in 6.2 mi West 10.4 mph - N/A   Overcast
6:50 AM 55 °F 44 °F 56% 30.17 in 12 mi West 5.8 mph - -   Scattered Clouds
6:50 AM 55.4 °F 44.6 °F 67% 30.15 in 6.2 mi West 5.8 mph - N/A   Mostly Cloudy
7:50 AM 53.6 °F 42.8 °F 67% 30.15 in 6.2 mi WNW 4.6 mph - N/A   Mostly Cloudy
8:50 AM 55.4 °F 44.6 °F 67% 30.18 in 6.2 mi West 5.8 mph - N/A   Mostly Cloudy
9:50 AM 55.4 °F 44.6 °F 67% 30.18 in - West 2.3 mph - N/A   Clear
10:50 AM 55.4 °F 46.4 °F 72% 30.21 in - WSW 5.8 mph - N/A   Clear
11:50 AM 55.4 °F 44.6 °F 67% 30.21 in - West 5.8 mph - N/A   Clear
12:50 PM 58 °F 46 °F 56% 30.20 in 16 mi West 2.3 mph - -   Scattered Clouds
12:50 PM 57.2 °F 46.4 °F 67% 30.18 in - West 2.3 mph - N/A   Clear
1:50 PM 59.0 °F 44.6 °F 59% 30.18 in - ENE 3.5 mph - N/A   Clear
2:50 PM 59.0 °F 46.4 °F 63% 30.15 in 6.2 mi NE 3.5 mph - N/A   Scattered Clouds
3:50 PM 59.0 °F 46.4 °F 63% 30.15 in 6.2 mi ESE 4.6 mph - N/A   Scattered Clouds
4:50 PM 59.0 °F 46.4 °F 63% 30.15 in - ESE 5.8 mph - N/A   Clear
5:50 PM 59.0 °F 46.4 °F 63% 30.15 in - East 2.3 mph - N/A   Clear
6:50 PM 58 °F 47 °F 58% 30.16 in 11 mi East 4.6 mph - -   Partly Cloudy
6:50 PM 59.0 °F 48.2 °F 67% 30.15 in 6.2 mi East 4.6 mph - N/A   Overcast
7:50 PM 59.0 °F 48.2 °F 67% 30.15 in 6.2 mi ENE 2.3 mph - N/A Rain Light Rain
8:50 PM 57.2 °F 50.0 °F 77% 30.15 in - ENE 3.5 mph - N/A   Clear
9:50 PM 57.2 °F 50.0 °F 77% 30.15 in 6.2 mi NW 4.6 mph - N/A Rain Light Rain
10:50 PM 55.4 °F 50.0 °F 82% 30.15 in 6.2 mi NE 2.3 mph - N/A Rain Light Rain
11:50 PM 55.4 °F 51.8 °F 88% 30.12 in 6.2 mi North 3.5 mph - N/A   Mostly Cloudy